Wind_Speed
103 105 107 109 111 114 117 120 123 125 126 128 130 130 131 133 131 125 122 118 117 116 105 98 95 93 93 95 99 102 102 104 103 101 108 112 115 115 116 115 112 112 115
101 105 109 112 116 120 123 122 124 127 129 134 134 136 137 134 130 120 118 116 106 96 92 85 84 84 84 85 86 91 90 91 91 91 100 107 106 108 108 104 101 99 104
103 108 110 112 111 115 121 126 130 134 137 137 135 133 130 127 122 117 106 96 90 84 82 77 77 75 75 76 75 76 76 77 74 70 80 86 89 94 95 96 100 97 95
104 105 107 110 114 121 123 125 128 131 134 131 128 127 117 110 108 98 90 84 81 76 73 70 70 68 66 65 64 65 65 66 66 66 67 74 75 78 78 83 84 85 88
102 109 114 117 116 120 123 125 129 132 129 123 118 108 100 93 89 83 78 73 70 68 65 62 61 59 57 57 56 55 56 56 57 57 59 63 66 68 71 72 73 78 83
105 108 111 113 115 119 123 123 120 117 111 102 96 89 84 79 74 70 64 62 61 59 57 54 51 50 49 47 46 45 46 46 47 48 50 52 57 56 60 61 66 69 77
108 111 112 114 115 116 114 110 104 98 92 87 81 76 70 66 63 58 55 54 53 50 48 46 44 42 41 40 39 39 39 39 41 41 43 45 48 49 49 54 58 62 66
110 111 111 113 111 105 99 94 89 84 78 72 66 62 60 55 53 50 48 46 45 44 41 38 36 35 33 33 33 35 36 37 35 36 38 41 42 43 44 47 50 55 55
112 113 107 100 95 91 88 82 76 70 64 58 54 53 50 46 44 42 41 40 37 36 33 32 31 33 35 33 33 36 39 39 37 38 39 42 42 43 41 40 45 48 49
111 104 94 87 84 80 75 68 63 58 52 48 45 43 40 39 37 34 32 32 33 34 33 32 28 29 32 31 29 30 36 36 36 36 38 41 45 44 42 43 45 48 48
96 88 83 78 73 69 62 56 51 47 43 41 37 35 34 33 30 29 28 28 32 34 32 29 28 29 30 32 32 33 35 37 37 37 36 37 40 42 45 44 42 46 48
85 79 72 67 63 56 51 45 40 38 35 31 31 29 28 26 27 27 27 30 29 30 30 30 30 31 32 34 36 37 39 40 40 40 38 37 40 42 47 45 44 45 47
76 68 62 57 50 45 39 35 33 30 28 27 25 23 22 24 26 31 30 26 25 27 30 31 32 34 36 36 37 37 39 40 41 40 40 39 39 41 44 43 46 49 47
65 58 52 46 40 35 31 28 26 24 22 20 20 21 22 26 28 26 24 24 26 27 27 29 31 33 35 35 36 37 37 37 36 36 36 36 37 38 39 41 44 48 49
56 48 42 36 31 28 25 22 20 17 17 19 21 23 26 23 21 21 24 26 29 28 28 29 31 33 34 35 36 35 33 32 31 30 29 30 32 33 34 36 39 42 45
45 39 33 28 25 21 18 15 13 14 16 20 26 27 25 21 21 23 26 28 29 29 30 30 32 33 33 34 34 31 27 25 23 22 23 24 25 27 28 29 32 34 35
37 31 26 23 18 15 10 10 12 16 20 24 25 25 23 22 23 26 28 29 30 29 29 30 31 32 32 34 30 25 23 21 18 16 16 16 17 19 21 22 24 25 27
31 25 21 15 11 7 7 10 14 17 21 22 21 21 22 22 25 28 29 31 31 29 29 27 29 28 30 31 26 21 18 16 14 12 11 11 13 14 15 16 18 21 23
25 20 13 9 5 6 9 12 16 20 20 18 20 23 23 24 26 28 29 30 30 28 26 24 25 25 28 27 21 19 15 12 10 7 7 8 9 10 12 13 15 18 22
21 13 8 4 5 8 11 15 19 18 18 19 20 21 22 25 27 30 30 30 28 25 22 22 21 23 26 24 18 16 13 10 8 6 5 3 4 6 9 13 16 18 21
13 8 4 6 7 10 14 18 16 16 16 17 18 22 25 29 32 33 31 28 26 22 21 18 20 22 23 22 18 14 10 7 7 4 2 2 3 5 8 13 15 17 20
8 5 6 7 10 14 17 16 15 16 16 17 20 26 30 31 32 31 29 25 23 20 18 18 20 23 23 20 18 14 10 7 6 3 2 5 7 8 10 12 16 19 21
4 7 8 9 13 16 15 14 16 15 17 19 23 28 32 34 32 30 27 24 22 20 18 18 22 24 22 18 15 14 10 6 5 2 3 6 9 10 13 14 15 19 22
6 9 9 13 15 14 13 13 14 16 17 19 24 29 32 33 33 30 27 25 22 20 19 20 23 23 21 18 15 12 9 6 4 3 4 6 9 12 14 16 17 21 23
8 10 11 13 14 14 12 13 15 18 17 20 25 29 31 34 32 30 26 24 22 22 24 26 26 24 22 19 16 12 8 6 4 4 4 7 9 12 15 17 18 21 23
10 9 12 13 14 14 12 13 15 18 17 22 25 29 32 31 28 27 25 23 25 27 28 28 29 27 23 20 17 13 10 6 3 5 7 8 8 12 16 16 18 21 25
Wind_Direction
291 292 293 292 292 292 291 290 291 291 290 291 291 291 292 294 296 297 298 298 297 296 291 286 283 278 274 270 266 265 263 261 259 252 254 252 251 253 255 254 254 252 251
292 293 293 294 294 295 295 296 295 294 294 293 293 295 296 298 298 299 299 297 295 292 289 286 284 279 276 272 271 270 268 266 264 258 259 255 255 254 256 257 256 255 254
294 295 295 295 296 297 296 295 294 293 292 293 295 297 297 298 298 299 298 295 293 290 289 287 283 281 279 276 272 271 268 268 266 261 259 258 257 255 254 255 254 251 247
294 294 295 295 295 294 293 292 291 291 293 296 297 299 299 300 299 296 294 294 292 289 287 286 284 282 280 278 276 273 269 268 265 262 258 256 254 253 251 250 248 248 246
298 297 296 295 294 293 293 293 292 294 296 296 295 298 298 298 295 295 294 291 289 288 287 285 284 283 281 280 277 275 271 269 266 262 258 257 255 252 250 250 246 244 244
299 298 296 295 293 293 292 292 294 296 296 297 297 298 296 295 295 292 292 289 288 288 288 289 288 286 284 282 279 276 272 269 267 264 261 258 256 253 251 250 248 245 243
299 298 298 296 296 295 297 297 297 298 298 298 298 296 294 294 293 293 292 291 291 291 291 291 290 287 285 282 281 278 274 270 267 264 262 258 256 253 251 247 245 243 243
300 300 301 299 300 300 300 299 300 300 300 299 297 295 294 295 295 295 295 294 293 294 293 293 291 287 282 278 276 271 268 266 263 262 260 258 256 252 247 245 245 244 242
301 301 302 302 302 302 301 302 301 301 299 297 296 296 297 297 297 297 297 298 297 293 290 288 287 285 283 279 276 274 269 266 264 259 257 258 253 252 247 244 244 244 242
304 304 305 304 302 302 302 303 301 300 299 298 298 298 298 299 300 301 299 297 293 293 293 290 290 290 288 287 282 277 275 274 266 260 256 256 260 259 251 241 239 239 240
307 307 306 305 305 304 304 302 300 300 300 300 300 300 300 300 301 300 296 293 296 294 297 299 296 291 290 291 289 285 281 277 274 268 260 254 251 255 257 251 241 242 240
309 309 308 306 306 304 302 301 301 302 302 300 300 302 305 306 306 302 298 300 301 303 303 300 295 293 291 291 290 288 284 282 279 274 268 260 253 248 247 249 249 244 240
311 310 309 307 305 303 303 304 306 304 302 303 305 308 308 309 305 302 303 301 301 299 300 300 297 294 292 291 290 287 286 283 281 276 272 266 258 252 248 243 241 243 243
313 312 310 308 306 305 308 308 306 306 306 308 312 315 314 309 305 304 303 302 302 299 295 296 298 299 299 299 297 296 293 287 282 277 272 265 260 255 250 247 240 239 238
316 314 311 309 308 310 311 309 309 309 315 320 318 319 319 316 312 312 311 309 309 310 310 309 310 309 307 305 303 302 296 289 283 278 271 265 260 255 249 243 241 238 238
317 316 312 310 313 315 314 311 315 326 327 329 329 328 324 317 316 316 313 312 313 313 312 313 311 312 310 308 310 308 303 295 285 277 269 260 254 250 246 241 237 234 230
321 318 316 318 322 323 319 327 338 342 340 335 331 327 323 317 316 316 315 316 316 316 315 313 315 316 314 315 318 317 308 302 296 284 271 259 251 245 243 240 237 229 224
324 323 325 330 331 330 345 354 352 342 333 331 329 327 329 324 318 316 317 319 320 318 317 316 319 317 317 321 326 321 316 312 302 282 263 247 237 230 227 228 225 222 217
330 332 339 346 352 6 5 360 350 341 340 342 341 345 342 335 327 324 324 324 326 326 323 320 320 322 324 327 335 327 328 318 302 284 273 260 236 219 212 200 201 205 209
336 343 356 26 32 21 9 1 349 346 350 352 352 352 349 341 335 334 333 332 331 330 328 325 325 329 332 334 345 336 339 330 314 306 289 259 244 214 201 192 190 192 197
346 3 50 53 36 20 10 359 352 352 359 360 356 356 353 344 342 344 343 339 339 336 334 333 333 337 342 344 350 348 348 342 336 331 308 174 181 195 184 179 179 187 188
5 61 72 53 31 18 9 359 4 6 3 360 353 359 354 348 349 350 348 349 348 346 345 343 342 345 350 354 350 357 359 1 9 359 127 156 171 161 177 181 179 180 178
60 95 70 47 30 17 9 8 6 8 3 359 3 2 352 352 354 355 355 358 359 358 358 356 353 352 354 358 2 358 3 13 28 44 133 167 163 162 165 175 177 177 174
104 83 62 42 29 21 11 13 15 9 8 3 8 2 356 3 6 8 5 8 10 10 12 4 358 356 2 5 11 11 6 23 52 94 148 168 165 164 161 171 176 175 169
91 76 55 39 32 20 22 27 19 15 9 7 10 2 4 9 13 17 19 19 19 16 12 7 5 7 9 10 13 21 26 24 70 108 164 158 166 164 171 181 176 168 166
88 71 53 41 32 25 35 26 18 14 5 11 7 5 9 15 22 26 28 26 23 19 13 12 10 12 13 14 19 23 33 49 65 120 151 163 167 163 170 183 172 165 164
Height
10564 10553 10542 10530 10519 10506 10494 10480 10468 10455 10442 10428 10415 10404 10393 10382 10372 10361 10350 10342 10332 10323 10311 10305 10300 10292 10290 10287 10288 10288 10290 10293 10310 10320 10313 10316 10325 10323 10327 10341 10358 10369 10379
10542 10529 10515 10501 10486 10473 10457 10445 10430 10414 10401 10387 10375 10364 10353 10343 10334 10323 10316 10305 10295 10285 10276 10270 10266 10260 10258 10254 10255 10255 10257 10259 10272 10284 10274 10277 10286 10292 10296 10307 10319 10333 10341
10517 10504 10490 10476 10462 10447 10432 10416 10401 10386 10370 10356 10344 10334 10322 10309 10300 10290 10281 10271 10264 10255 10248 10243 10237 10233 10229 10227 10228 10228 10228 10232 10238 10248 10245 10247 10253 10258 10267 10274 10277 10292 10305
10496 10481 10467 10453 10438 10423 10404 10387 10368 10353 10338 10326 10312 10299 10287 10277 10268 10260 10251 10244 10237 10230 10223 10219 10214 10211 10207 10204 10203 10202 10204 10206 10210 10216 10220 10216 10224 10228 10238 10239 10253 10260 10269
10470 10454 10439 10424 10406 10386 10369 10352 10335 10320 10306 10294 10285 10271 10261 10252 10243 10236 10229 10222 10214 10207 10203 10199 10194 10191 10187 10184 10183 10183 10184 10184 10187 10191 10193 10195 10196 10204 10210 10217 10224 10231 10236
10443 10425 10410 10392 10373 10355 10337 10322 10308 10292 10278 10267 10257 10249 10237 10228 10222 10215 10209 10201 10194 10189 10185 10182 10178 10174 10170 10168 10167 10166 10165 10166 10168 10171 10172 10175 10174 10182 10186 10196 10200 10208 10209
10412 10393 10376 10359 10340 10323 10305 10291 10276 10265 10253 10243 10234 10226 10216 10210 10203 10197 10191 10184 10179 10174 10170 10166 10164 10160 10157 10155 10153 10151 10150 10150 10151 10153 10154 10156 10157 10162 10169 10172 10176 10180 10186
10381 10362 10344 10326 10309 10292 10276 10263 10251 10241 10231 10222 10213 10206 10199 10194 10187 10182 10176 10171 10166 10162 10158 10155 10151 10147 10145 10142 10140 10137 10136 10135 10139 10139 10138 10138 10141 10145 10150 10154 10159 10162 10173
10350 10332 10313 10296 10280 10264 10251 10240 10230 10221 10212 10204 10197 10189 10184 10179 10175 10170 10165 10160 10155 10151 10148 10145 10142 10136 10133 10132 10131 10127 10124 10125 10127 10127 10126 10125 10127 10129 10136 10141 10142 10147 10155
10320 10300 10283 10269 10256 10243 10232 10222 10212 10203 10196 10189 10183 10178 10173 10168 10164 10160 10156 10150 10145 10140 10137 10135 10133 10127 10123 10122 10121 10117 10112 10112 10112 10114 10115 10115 10114 10116 10122 10127 10130 10133 10139
10289 10273 10259 10245 10233 10222 10213 10205 10197 10190 10184 10178 10172 10168 10163 10159 10156 10152 10148 10143 10137 10132 10129 10126 10123 10119 10116 10112 10109 10107 10103 10100 10100 10100 10102 10103 10103 10104 10104 10110 10119 10120 10125
10264 10250 10237 10225 10215 10206 10198 10191 10185 10179 10173 10168 10164 10159 10156 10152 10148 10144 10140 10136 10130 10125 10121 10118 10115 10111 10107 10103 10099 10096 10092 10088 10087 10086 10086 10089 10090 10091 10092 10096 10099 10105 10111
10242 10229 10219 10208 10200 10192 10185 10180 10174 10170 10165 10161 10157 10155 10151 10147 10142 10137 10133 10128 10124 10120 10116 10111 10106 10102 10098 10094 10090 10085 10080 10076 10073 10070 10070 10071 10073 10076 10078 10084 10088 10091 10097
10223 10212 10202 10193 10186 10180 10175 10171 10166 10163 10159 10156 10153 10149 10146 10141 10136 10131 10126 10123 10119 10115 10111 10106 10099 10093 10087 10083 10077 10073 10067 10063 10059 10057 10056 10056 10058 10060 10063 10067 10073 10077 10082
10207 10198 10189 10182 10177 10172 10168 10164 10161 10158 10155 10152 10149 10145 10140 10135 10130 10126 10121 10116 10111 10106 10101 10096 10090 10084 10078 10072 10066 10060 10055 10050 10047 10046 10046 10045 10045 10047 10050 10053 10057 10062 10067
10194 10186 10179 10174 10170 10166 10163 10161 10158 10156 10153 10149 10144 10139 10134 10129 10125 10120 10116 10110 10105 10100 10094 10088 10082 10076 10070 10063 10057 10051 10046 10041 10039 10037 10035 10035 10034 10035 10038 10041 10045 10050 10056
10184 10177 10172 10168 10165 10163 10161 10159 10157 10154 10150 10146 10141 10136 10131 10126 10121 10116 10111 10104 10098 10094 10088 10081 10076 10070 10063 10055 10048 10043 10038 10034 10032 10030 10029 10028 10028 10029 10030 10033 10037 10042 10047
10177 10171 10167 10165 10164 10162 10161 10159 10157 10154 10150 10145 10140 10134 10128 10123 10117 10111 10105 10099 10093 10087 10081 10075 10070 10064 10057 10049 10043 10037 10033 10029 10027 10025 10024 10023 10022 10023 10025 10027 10031 10034 10038
10173 10169 10166 10164 10163 10162 10161 10160 10157 10153 10149 10144 10138 10131 10125 10119 10113 10107 10100 10093 10087 10082 10076 10071 10065 10060 10052 10044 10039 10033 10030 10027 10024 10021 10019 10019 10020 10020 10022 10025 10028 10031 10034
10171 10168 10167 10165 10164 10163 10162 10160 10157 10153 10148 10144 10138 10131 10125 10118 10111 10104 10096 10089 10083 10077 10072 10067 10062 10057 10049 10040 10037 10031 10028 10024 10021 10019 10018 10018 10019 10020 10021 10023 10026 10029 10032
10172 10169 10168 10167 10166 10165 10163 10161 10158 10153 10149 10144 10137 10131 10124 10116 10108 10101 10092 10085 10080 10075 10070 10065 10060 10054 10047 10037 10033 10030 10027 10023 10020 10020 10019 10019 10018 10020 10022 10022 10025 10028 10032
10173 10171 10170 10169 10168 10167 10165 10162 10158 10154 10150 10144 10138 10130 10123 10115 10107 10100 10092 10085 10079 10074 10069 10064 10058 10051 10045 10038 10030 10028 10026 10023 10020 10021 10021 10020 10019 10021 10023 10024 10025 10028 10032
10175 10173 10173 10172 10171 10168 10166 10163 10160 10155 10150 10146 10139 10131 10123 10115 10107 10099 10091 10085 10079 10074 10069 10064 10057 10050 10043 10038 10032 10027 10025 10024 10022 10022 10021 10021 10022 10024 10024 10025 10027 10032 10036
10177 10176 10176 10175 10173 10170 10168 10165 10161 10157 10152 10147 10140 10132 10124 10116 10108 10100 10093 10086 10081 10075 10070 10064 10057 10050 10043 10038 10033 10029 10026 10025 10023 10023 10023 10023 10025 10026 10026 10028 10031 10035 10039
10179 10179 10179 10178 10175 10173 10170 10167 10163 10159 10155 10148 10141 10135 10127 10119 10110 10102 10095 10089 10083 10077 10071 10065 10057 10050 10044 10039 10034 10030 10028 10026 10025 10024 10024 10025 10027 10029 10029 10031 10034 10038 10043
10182 10182 10181 10180 10178 10175 10172 10169 10166 10162 10157 10151 10145 10138 10129 10122 10114 10107 10100 10094 10087 10081 10074 10066 10058 10051 10045 10040 10035 10032 10029 10028 10027 10027 10027 10026 10027 10030 10033 10035 10039 10043 10049